Satellite: NOAA-12 Catalog number: 21263 Epoch time: 13346.53570053 Element set: 82 Inclination: 098.6819 deg RA of node: 010.3724 deg Eccentricity: 0.0014662 Arg of perigee: 064.4165 deg Mean anomaly: 051.2992 deg Mean motion: 14.25608000 rev/day Decay rate: 1.21e-06 rev/day^2 Epoch rev: 17396 Checksum: 269
Satellite: MET-3/5 Catalog number: 21655 Epoch time: 13346.16557306 Element set: 853 Inclination: 082.5562 deg RA of node: 128.5613 deg Eccentricity: 0.0013780 Arg of perigee: 048.9346 deg Mean anomaly: 311.2964 deg Mean motion: 13.17055874 rev/day Decay rate: -4.32e-06 rev/day^2 Epoch rev: 7336 Checksum: 306
Satellite: MET-2/21 Catalog number: 22782 Epoch time: 13346.87299247 Element set: 921 Inclination: 082.5496 deg RA of node: 321.1325 deg Eccentricity: 0.0023550 Arg of perigee: 069.8643 deg Mean anomaly: 353.8203 deg Mean motion: 13.83718524 rev/day Decay rate: 6.0e-07 rev/day^2 Epoch rev: 2435 Checksum: 302
Satellite: OKEAN-4 Catalog number: 23317 Epoch time: 13346.21077995 Element set: 400 Inclination: 082.5401 deg RA of node: 243.1270 deg Eccentricity: 0.0020995 Arg of perigee: 002.7905 deg Mean anomaly: 156.1424 deg Mean motion: 14.84877424 rev/day Decay rate: 1.985e-05 rev/day^2 Epoch rev: 3535 Checksum: 288
Satellite: NOAA-14 Catalog number: 23455 Epoch time: 13346.48353181 Element set: 560 Inclination: 098.7930 deg RA of node: 068.1360 deg Eccentricity: 0.0009312 Arg of perigee: 204.9347 deg Mean anomaly: 283.0812 deg Mean motion: 14.13936713 rev/day Decay rate: 4.0e-08 rev/day^2 Epoch rev: 97756 Checksum: 301
Satellite: NOAA-15 Catalog number: 25338 Epoch time: 13346.87043773 Element set: 989 Inclination: 098.7393 deg RA of node: 336.2448 deg Eccentricity: 0.0010333 Arg of perigee: 334.9991 deg Mean anomaly: 025.1176 deg Mean motion: 14.25308203 rev/day Decay rate: 3.33e-06 rev/day^2 Epoch rev: 81030 Checksum: 307
Satellite: RESURS Catalog number: 25394 Epoch time: 13346.79033345 Element set: 538 Inclination: 098.3872 deg RA of node: 314.2839 deg Eccentricity: 0.0002515 Arg of perigee: 093.7950 deg Mean anomaly: 327.1759 deg Mean motion: 14.24353601 rev/day Decay rate: 7.8e-07 rev/day^2 Epoch rev: 80178 Checksum: 315
Satellite: FENGYUN1 Catalog number: 25730 Epoch time: 13345.92026409 Element set: 32 Inclination: 098.8948 deg RA of node: 303.4511 deg Eccentricity: 0.0025564 Arg of perigee: 275.9629 deg Mean anomaly: 153.3341 deg Mean motion: 14.11085959 rev/day Decay rate: 3.564e-05 rev/day^2 Epoch rev: 75110 Checksum: 299
Satellite: OKEAN-0 Catalog number: 25860 Epoch time: 13345.87647559 Element set: 119 Inclination: 098.0167 deg RA of node: 306.2099 deg Eccentricity: 0.0000845 Arg of perigee: 085.8589 deg Mean anomaly: 301.0776 deg Mean motion: 14.74841118 rev/day Decay rate: 9.35e-06 rev/day^2 Epoch rev: 77454 Checksum: 336
Satellite: NOAA-16 Catalog number: 26536 Epoch time: 13346.77913672 Element set: 476 Inclination: 099.0198 deg RA of node: 041.0934 deg Eccentricity: 0.0010439 Arg of perigee: 356.3863 deg Mean anomaly: 003.7710 deg Mean motion: 14.12955752 rev/day Decay rate: 2.04e-06 rev/day^2 Epoch rev: 68179 Checksum: 319
Satellite: NOAA-17 Catalog number: 27453 Epoch time: 13346.87286866 Element set: 381 Inclination: 098.3111 deg RA of node: 351.4568 deg Eccentricity: 0.0011892 Arg of perigee: 007.3731 deg Mean anomaly: 352.8113 deg Mean motion: 14.24657134 rev/day Decay rate: 2.87e-06 rev/day^2 Epoch rev: 59616 Checksum: 320
Satellite: NOAA-18 Catalog number: 28654 Epoch time: 13346.86341964 Element set: 870 Inclination: 099.1244 deg RA of node: 317.8717 deg Eccentricity: 0.0015282 Arg of perigee: 067.9210 deg Mean anomaly: 292.4061 deg Mean motion: 14.11908051 rev/day Decay rate: 4.03e-06 rev/day^2 Epoch rev: 44127 Checksum: 302
Satellite: NOAA-19 Catalog number: 33591 Epoch time: 13346.52310135 Element set: 44 Inclination: 098.9248 deg RA of node: 287.3416 deg Eccentricity: 0.0013115 Arg of perigee: 287.5988 deg Mean anomaly: 203.6428 deg Mean motion: 14.11601841 rev/day Decay rate: 2.00e-06 rev/day^2 Epoch rev: 24965 Checksum: 295
/EX SB KEPS @ AMSAT $ORB13346.M Orbital Elements 13346.MISC
HR AMSAT ORBITAL ELEMENTS FOR MANNED AND MISCELLANEOUS SATELLITES FROM WA5QGD FORT WORTH,TX December 12, 2013 BID: ORB13346.M TO ALL RADIO AMATEURS BT
Satellite: HUBBLE Catalog number: 20580 Epoch time: 13345.85210262 Element set: 392 Inclination: 028.4686 deg RA of node: 187.6222 deg Eccentricity: 0.0003448 Arg of perigee: 081.8568 deg Mean anomaly: 043.7379 deg Mean motion: 15.04333040 rev/day Decay rate: 2.732e-05 rev/day^2 Epoch rev: 9647 Checksum: 292
Satellite: ISS Catalog number: 25544 Epoch time: 13346.94692194 Element set: 223 Inclination: 051.6493 deg RA of node: 302.6018 deg Eccentricity: 0.0001635 Arg of perigee: 240.9858 deg Mean anomaly: 194.5168 deg Mean motion: 15.50408614 rev/day Decay rate: 1.9426e-04 rev/day^2 Epoch rev: 86243 Checksum: 307
Satellite: CO-58 Catalog number: 28895 Epoch time: 13345.77712976 Element set: 643 Inclination: 097.8481 deg RA of node: 192.2499 deg Eccentricity: 0.0016499 Arg of perigee: 239.5011 deg Mean anomaly: 120.4563 deg Mean motion: 14.61407370 rev/day Decay rate: 1.342e-05 rev/day^2 Epoch rev: 43287 Checksum: 340
Satellite: FALCON Catalog number: 30776 Epoch time: 13346.03711782 Element set: 756 Inclination: 035.4287 deg RA of node: 189.2789 deg Eccentricity: 0.0001341 Arg of perigee: 354.0002 deg Mean anomaly: 139.0341 deg Mean motion: 15.12640017 rev/day Decay rate: 9.463e-05 rev/day^2 Epoch rev: 37234 Checksum: 280
Satellite: MAST Catalog number: 31126 Epoch time: 13346.70794838 Element set: 922 Inclination: 097.8954 deg RA of node: 332.5953 deg Eccentricity: 0.0092247 Arg of perigee: 215.2573 deg Mean anomaly: 195.4222 deg Mean motion: 14.54848711 rev/day Decay rate: 9.95e-06 rev/day^2 Epoch rev: 35327 Checksum: 330
Satellite: CAPE1 Catalog number: 31130 Epoch time: 13346.18802459 Element set: 926 Inclination: 097.9151 deg RA of node: 328.5607 deg Eccentricity: 0.0099048 Arg of perigee: 233.9138 deg Mean anomaly: 125.2857 deg Mean motion: 14.53857017 rev/day Decay rate: 1.335e-05 rev/day^2 Epoch rev: 35263 Checksum: 312
Satellite: COMPASS Catalog number: 32787 Epoch time: 13346.72639246 Element set: 802 Inclination: 097.7308 deg RA of node: 040.5175 deg Eccentricity: 0.0015660 Arg of perigee: 078.4466 deg Mean anomaly: 281.8507 deg Mean motion: 14.86405141 rev/day Decay rate: 5.175e-05 rev/day^2 Epoch rev: 30447 Checksum: 311
Satellite: AAUSAT2 Catalog number: 32788 Epoch time: 13346.81003886 Element set: 787 Inclination: 097.7316 deg RA of node: 041.3832 deg Eccentricity: 0.0015175 Arg of perigee: 077.4910 deg Mean anomaly: 282.8003 deg Mean motion: 14.86953522 rev/day Decay rate: 6.253e-05 rev/day^2 Epoch rev: 30453 Checksum: 311
Satellite: DO-64 Catalog number: 32789 Epoch time: 13346.82885699 Element set: 824 Inclination: 097.7485 deg RA of node: 046.3310 deg Eccentricity: 0.0014061 Arg of perigee: 068.3097 deg Mean anomaly: 356.4093 deg Mean motion: 14.90319178 rev/day Decay rate: 1.0671e-04 rev/day^2 Epoch rev: 30471 Checksum: 338
Satellite: CO-66 Catalog number: 32791 Epoch time: 13346.81515512 Element set: 781 Inclination: 097.7305 deg RA of node: 039.7125 deg Eccentricity: 0.0016256 Arg of perigee: 080.2535 deg Mean anomaly: 345.9273 deg Mean motion: 14.85367593 rev/day Decay rate: 4.460e-05 rev/day^2 Epoch rev: 30438 Checksum: 321
Satellite: RS-30 Catalog number: 32953 Epoch time: 13346.82301243 Element set: 460 Inclination: 082.5018 deg RA of node: 317.0995 deg Eccentricity: 0.0017979 Arg of perigee: 200.0650 deg Mean anomaly: 159.9725 deg Mean motion: 12.43040445 rev/day Decay rate: 1.0e-07 rev/day^2 Epoch rev: 25210 Checksum: 266
Satellite: METEOR-M Catalog number: 35865 Epoch time: 13346.75106057 Element set: 68 Inclination: 098.5783 deg RA of node: 034.5657 deg Eccentricity: 0.0001811 Arg of perigee: 291.4363 deg Mean anomaly: 068.6620 deg Mean motion: 14.21901077 rev/day Decay rate: 9.0e-08 rev/day^2 Epoch rev: 21984 Checksum: 303
Satellite: RS-38 Catalog number: 35869 Epoch time: 13346.75271922 Element set: 23 Inclination: 098.5720 deg RA of node: 034.4284 deg Eccentricity: 0.0003952 Arg of perigee: 280.2300 deg Mean anomaly: 079.8436 deg Mean motion: 14.22163512 rev/day Decay rate: 7.1e-07 rev/day^2 Epoch rev: 21987 Checksum: 299
Satellite: JUGNU Catalog number: 37839 Epoch time: 13346.23225558 Element set: 520 Inclination: 019.9620 deg RA of node: 307.9387 deg Eccentricity: 0.0019272 Arg of perigee: 084.3190 deg Mean anomaly: 044.7399 deg Mean motion: 14.12218747 rev/day Decay rate: 5.03e-06 rev/day^2 Epoch rev: 11209 Checksum: 299
Satellite: SRMSAT Catalog number: 37841 Epoch time: 13346.32589701 Element set: 519 Inclination: 019.9730 deg RA of node: 322.9576 deg Eccentricity: 0.0012100 Arg of perigee: 032.8511 deg Mean anomaly: 110.8514 deg Mean motion: 14.10277231 rev/day Decay rate: 4.78e-06 rev/day^2 Epoch rev: 11195 Checksum: 270
Satellite: RAX-2 Catalog number: 37853 Epoch time: 13346.72824230 Element set: 668 Inclination: 101.7029 deg RA of node: 283.2313 deg Eccentricity: 0.0227297 Arg of perigee: 234.7485 deg Mean anomaly: 255.5151 deg Mean motion: 14.85886948 rev/day Decay rate: 1.1795e-04 rev/day^2 Epoch rev: 11493 Checksum: 331
Satellite: AUBIESAT Catalog number: 37854 Epoch time: 13346.65502551 Element set: 653 Inclination: 101.7070 deg RA of node: 284.4012 deg Eccentricity: 0.0226519 Arg of perigee: 232.9872 deg Mean anomaly: 252.4281 deg Mean motion: 14.86826458 rev/day Decay rate: 1.1691e-04 rev/day^2 Epoch rev: 11495 Checksum: 303
